Hourly Data Report for September 16, 2017

All times are specified in Local Standard Time (LST). Add 1 hour to adjust for Daylight Saving Time where and when it is observed.

EDMUNDSTON
NEW BRUNSWICK

47°25'00.000" N
68°19'28.040" W
154.20 m
8101303
71590
ERM

Download Data

Hourly Data (September 2017)
Hourly Data Report for September 16, 2017
Temp Definition
°C
Dew Point Temp Definition
°C
Rel Hum Definition
%
Wind Dir Definition
10's deg

Wind Spd Definition
km/h
Visibility Definition
km
Stn Press Definition
kPa
Hmdx Definition


Wind Chill Definition


Weather Definition


TIME
00:00 8.1 7.2 94   0   100.07     LegendNANA
01:00 7.8 6.9 94   0   100.05     LegendNANA
02:00 7.4 6.5 95   0   100.07     LegendNANA
03:00 6.8 6.0 94   0   100.03     LegendNANA
04:00 7.6 6.8 95   0   100.03     LegendNANA
05:00 7.0 6.2 95   0   100.00     LegendNANA
06:00 7.3 6.6 95   0   100.02     LegendNANA
07:00 7.6 6.8 95   0   100.05     LegendNANA
08:00 10.4 9.1 92 21 8   100.07     LegendNANA
09:00 14.3 10.9 80 0 1   100.11     LegendNANA
10:00 18.6 12.8 69 0 1   100.07     LegendNANA
11:00 20.9 15.0 69 34 6   100.08 25   LegendNANA
12:00 21.3 15.1 68 29 12   100.10 25   LegendNANA
13:00 19.8 14.5 72 34 16   100.17     LegendNANA
14:00 19.2 14.0 72 32 7   100.19     LegendNANA
15:00 18.3 12.8 70 34 16   100.28     LegendNANA
16:00 18.2 12.8 71 32 9   100.25     LegendNANA
17:00 17.8 12.4 71 34 10   100.24     LegendNANA
18:00 17.0 12.4 74 29 5   100.29     LegendNANA
19:00 15.7 12.2 80 31 3   100.28     LegendNANA
20:00 15.1 11.4 78 35 7   100.34     LegendNANA
21:00 14.2 11.8 86 27 2   100.34     LegendNANA
22:00 14.1 11.9 87 29 3   100.37     LegendNANA
23:00 13.9 11.9 88 25 1   100.33     LegendNANA

Notes on Data Quality.

Legend

  • E = Estimated
  • M = Missing
  • NA = Not Available
  • ‡ = Partner data that is not subject to review by the National Climate Archives
Date modified: